Theta_e
295 296 296 297 297 297 296 296 296 296 295 294 294 293 293 294 295 296 297 296 297 299 298 298 298 298 298 298 298 298 298 298 298 298 299 298 298 297 297 297 297 299 300 301 300 301 301 299 299 299 300 299 300 300
295 296 296 296 296 296 295 295 295 294 294 294 294 294 294 294 294 294 297 296 296 297 298 297 297 297 297 297 298 298 298 297 297 299 298 298 298 298 297 297 297 300 299 299 299 299 299 299 298 299 299 299 299 300
296 296 296 296 295 294 295 295 295 295 296 296 296 296 296 296 296 296 297 297 296 296 297 297 298 297 297 297 297 300 299 298 298 298 299 299 298 296 297 296 295 296 297 299 298 298 298 298 299 299 300 300 300 301
296 296 295 295 295 295 296 296 295 295 294 294 293 293 293 293 294 295 296 296 296 295 298 298 297 298 296 296 297 297 297 297 298 298 298 298 297 296 296 296 297 297 297 297 297 298 299 299 299 299 300 300 300 300
296 296 296 296 295 294 294 293 293 293 293 292 293 293 293 294 294 295 297 297 296 296 299 298 296 295 295 295 296 296 296 298 299 298 298 298 297 297 297 298 299 297 297 301 302 299 301 300 300 300 300 300 300 300
295 295 295 294 293 292 292 292 292 293 294 294 293 292 292 292 293 296 297 296 294 294 296 296 296 296 295 295 296 296 297 297 298 298 298 298 297 298 298 298 297 297 298 298 299 299 299 300 299 299 299 300 300 300
293 293 292 292 293 294 294 294 294 294 293 292 292 291 292 293 296 296 297 296 294 294 295 296 296 297 296 297 298 298 297 297 297 297 297 297 297 298 299 299 298 298 298 298 298 298 299 298 300 300 301 301 301 300
291 291 291 293 293 294 293 294 293 293 292 292 294 294 294 295 294 294 295 292 294 294 294 295 295 296 295 296 297 298 297 296 296 296 296 297 297 298 299 298 298 298 298 299 299 299 299 300 301 301 300 301 301 302
291 291 292 293 293 293 293 293 293 293 292 294 294 294 294 294 296 295 292 292 294 294 296 295 295 296 296 296 297 298 298 298 297 298 297 297 298 299 298 298 298 299 298 300 300 301 300 300 302 300 299 300 301 301
291 292 293 293 293 293 293 293 294 293 293 293 294 295 294 295 292 292 293 294 294 295 295 295 295 296 296 297 297 297 298 298 299 298 298 300 299 299 298 299 301 301 300 299 299 299 298 297 297 297 298 299 299 300
292 291 292 292 292 293 293 294 293 293 292 294 295 296 293 291 293 294 295 295 296 296 296 295 296 297 297 298 298 298 299 298 300 299 299 300 300 302 301 301 300 298 298 298 297 297 295 296 295 295 296 297 298 300
292 291 292 292 292 293 294 293 293 294 294 294 294 293 294 293 294 293 295 295 296 296 297 297 298 298 298 297 298 299 298 298 298 300 301 302 305 300 299 299 298 297 297 297 295 295 294 295 294 293 294 296 297 299
291 291 292 292 292 293 293 293 293 293 292 293 294 295 295 294 294 294 295 296 297 298 298 298 299 299 299 298 298 298 299 299 299 301 301 303 300 298 297 296 296 295 295 294 294 294 294 293 293 294 295 295 295 298
291 292 292 292 293 293 293 293 292 291 293 295 295 293 294 295 295 296 296 297 298 298 297 298 299 299 300 299 299 300 299 299 302 303 302 300 298 296 295 295 295 295 294 293 294 294 293 292 291 293 293 294 294 293
292 292 291 292 292 293 293 292 291 292 294 295 294 294 295 294 296 297 297 297 297 297 297 299 299 299 300 300 300 300 302 302 303 301 299 298 296 295 294 294 294 294 294 293 293 293 292 291 290 292 290 291 291 291
292 292 293 293 293 293 293 292 291 293 293 294 294 295 296 297 300 300 298 298 297 297 298 299 299 300 301 302 302 302 304 302 301 299 297 296 295 294 294 294 294 294 293 293 292 292 292 290 289 290 289 290 290 290
292 294 293 292 293 293 292 293 293 293 294 293 295 296 296 297 298 298 298 297 296 298 298 298 299 300 300 300 300 302 302 299 298 297 296 295 293 294 293 293 292 292 292 292 292 291 292 290 289 292 290 288 289 289
294 294 292 293 293 292 292 292 294 293 293 294 295 298 297 297 297 297 297 297 297 297 297 298 299 298 298 298 300 301 299 298 297 296 295 294 293 293 292 291 291 291 292 291 291 291 292 292 290 291 290 289 289 288
294 294 292 292 293 293 293 292 293 294 294 295 295 295 296 296 296 296 296 296 296 295 296 298 298 299 299 300 300 300 299 298 296 294 295 296 294 293 292 291 291 291 290 291 291 291 292 292 292 289 289 292 294 293
294 293 292 292 292 293 293 293 293 294 294 295 295 295 295 296 297 300 296 295 294 295 296 297 297 300 300 299 299 298 297 294 294 294 295 295 292 291 292 291 291 290 290 290 290 290 291 292 292 291 290 291 292 293
293 292 292 292 293 293 294 294 294 294 294 294 295 295 296 297 297 297 297 297 295 296 297 297 299 299 298 299 296 294 293 293 293 293 292 293 293 290 290 290 289 289 291 291 291 291 291 292 291 292 290 290 289 289
293 292 292 292 293 293 293 293 293 294 294 294 295 295 296 297 298 297 297 296 296 297 299 298 298 297 296 292 291 290 290 289 290 290 290 290 291 291 291 289 289 291 290 291 290 292 291 291 291 291 290 289 288 288
292 292 292 292 292 292 291 292 292 292 293 293 294 295 296 296 296 296 297 296 297 298 297 296 293 290 291 290 289 289 289 289 290 291 289 289 289 289 288 288 288 289 290 288 288 289 290 290 290 290 290 288 288 288
291 292 292 292 291 291 291 291 292 293 295 295 295 295 295 296 296 296 295 296 297 296 294 290 291 291 291 290 291 291 290 289 289 288 288 288 288 288 287 287 287 287 287 286 287 289 289 288 289 289 289 289 288 288
293 292 291 292 292 292 292 293 294 294 294 295 295 295 295 295 295 295 295 295 294 295 291 290 289 289 289 289 289 289 288 288 289 288 286 286 286 286 285 285 284 285 285 286 287 286 285 285 286 287 288 289 289 289
293 294 293 294 295 293 294 294 294 294 294 294 294 294 294 294 294 294 292 293 291 291 291 290 289 289 288 288 288 288 287 285 284 284 283 283 283 283 284 285 285 284 284 284 283 282 283 283 284 285 286 287 289 289
294 295 293 292 293 292 293 294 294 294 294 294 294 293 293 292 291 291 291 288 288 286 286 286 286 286 286 285 285 284 282 281 280 280 280 280 280 281 281 283 283 282 281 281 280 280 280 281 282 283 284 285 286 288
293 293 293 292 292 292 292 293 293 293 293 292 291 291 291 291 290 289 287 286 284 284 283 283 283 283 282 281 280 279 279 279 279 279 279 279 280 280 280 280 279 278 278 278 278 279 279 280 281 282 282 284 285 286
291 292 291 292 292 292 291 291 290 290 288 287 288 287 287 287 288 287 284 282 282 281 282 282 282 279 280 279 279 278 278 278 278 277 277 278 278 278 277 276 276 276 277 277 278 278 279 279 280 280 281 282 284 285
291 291 291 290 288 288 289 289 289 288 285 285 285 285 284 286 284 280 280 279 279 279 278 278 277 277 277 277 277 277 277 277 276 275 276 276 276 274 274 275 275 276 276 276 277 278 278 279 280 281 283 284 286 287
288 288 288 287 287 288 289 287 286 285 285 285 285 285 284 285 281 278 278 277 277 277 277 277 277 277 276 276 276 276 276 276 275 274 274 273 273 273 274 274 274 274 274 275 276 277 279 280 280 281 282 283 285 286
287 287 287 286 286 286 285 284 284 283 283 283 284 284 284 283 283 280 277 278 278 278 276 276 276 276 275 275 275 275 275 274 274 274 274 273 272 272 272 272 272 273 274 275 276 277 277 278 279 280 281 282 284 286
285 285 285 284 284 283 283 283 281 281 282 282 282 282 282 281 281 280 276 276 277 276 276 276 276 275 274 274 275 275 275 275 275 273 273 272 271 271 271 272 272 272 273 274 275 276 277 278 279 280 281 283 285 286
Wind_Speed
22 22 21 22 22 22 22 23 23 22 18 15 14 12 12 11 11 7 4 6 5 3 7 7 10 12 9 7 8 2 6 7 6 9 9 12 11 14 15 19 19 15 13 14 15 20 27 22 24 22 18 17 21 21
22 23 25 25 24 23 21 20 19 17 16 14 13 11 11 11 10 9 2 6 6 2 7 12 14 15 17 18 11 9 9 10 3 5 5 5 10 12 18 16 18 15 14 12 18 17 23 25 26 24 24 24 25 22
22 24 24 24 22 21 20 18 17 15 14 13 12 10 10 11 12 13 7 7 3 2 8 12 10 14 20 24 21 10 10 15 15 12 8 9 15 11 13 13 19 20 19 15 19 23 24 25 23 22 24 25 24 24
20 22 22 21 20 19 17 16 15 14 12 11 10 10 9 10 11 12 11 8 6 1 3 7 4 12 9 13 18 22 21 16 11 6 8 9 12 11 14 18 18 16 20 22 24 26 24 23 23 21 17 19 19 20
18 20 21 20 19 18 16 14 13 12 10 10 9 8 7 8 9 10 10 8 10 3 3 7 17 21 18 17 15 19 20 15 9 7 6 11 12 14 14 16 17 17 22 15 17 22 20 23 22 22 23 23 21 21
22 21 19 17 15 14 13 12 12 11 11 9 7 6 6 7 7 5 3 8 10 8 3 4 6 8 10 10 14 15 15 11 6 4 7 8 18 12 8 15 26 21 22 21 20 23 23 26 26 26 26 23 21 21
19 17 15 14 14 13 13 13 13 11 9 6 5 5 5 6 8 2 2 3 9 8 2 4 4 3 4 7 8 8 13 7 5 5 8 14 14 7 7 17 29 22 25 25 23 23 22 21 20 23 23 23 20 18
15 14 15 15 14 14 13 12 12 10 7 3 3 5 7 8 3 5 4 6 9 3 3 3 4 5 5 6 7 2 1 2 4 5 7 9 12 11 12 22 23 21 17 20 20 20 21 22 22 21 21 23 24 22
15 14 15 15 14 14 12 13 11 9 5 7 7 8 7 3 4 4 2 3 6 5 3 4 5 5 1 5 4 3 4 5 5 6 8 6 9 7 12 16 19 20 21 16 15 16 19 19 22 22 22 22 20 19
15 16 16 15 14 12 12 12 10 8 8 12 9 3 1 2 4 5 2 2 3 3 3 5 5 6 3 3 3 3 4 4 4 6 5 3 10 18 19 18 15 15 15 14 12 18 20 21 19 20 20 20 19 18
15 15 14 13 12 10 11 12 11 13 15 5 3 3 6 7 2 0 2 3 4 3 5 5 8 8 3 5 4 4 3 3 4 3 3 3 4 1 7 12 12 13 13 15 18 19 20 19 19 17 16 17 18 19
14 13 14 12 11 11 13 14 15 13 8 4 3 5 5 2 2 3 3 2 4 4 2 4 4 5 4 4 4 4 3 3 5 5 3 3 3 11 13 15 15 16 15 17 20 19 18 16 15 15 14 12 15 14
15 15 15 12 12 12 11 15 17 9 7 5 3 2 3 3 4 4 5 4 3 2 3 5 7 2 3 4 4 3 5 5 1 3 3 2 8 13 15 14 17 17 16 18 20 18 16 18 19 10 9 5 9 5
16 17 15 12 12 12 15 13 13 10 5 2 3 4 4 5 5 4 5 6 5 6 9 9 6 3 3 5 4 4 5 3 4 3 4 9 14 15 14 14 14 17 17 16 18 18 19 16 14 12 12 9 3 5
17 14 12 11 13 13 15 18 10 6 3 2 3 4 6 6 4 4 6 7 8 8 8 7 5 4 4 4 4 5 4 5 1 4 6 8 13 13 13 14 15 14 14 14 15 15 15 14 12 10 12 10 5 7
15 10 10 11 13 15 20 15 6 4 3 2 4 4 5 5 6 6 5 7 7 7 7 6 4 4 3 3 4 5 4 3 3 5 6 8 10 12 13 14 14 13 13 13 13 13 13 11 11 11 10 8 2 6
16 5 12 15 14 18 21 6 4 3 4 4 4 6 8 8 7 6 5 5 6 4 3 4 3 3 5 4 4 1 2 4 5 6 5 8 10 12 13 13 11 12 13 11 14 17 15 15 15 8 6 6 4 6
6 11 18 17 19 15 4 3 3 4 6 6 6 5 7 7 8 7 5 5 3 3 3 3 4 5 5 10 10 1 2 4 4 5 6 8 11 11 10 13 12 15 12 16 17 17 16 12 9 7 7 4 1 4
8 16 20 21 16 5 4 4 4 4 6 6 7 7 7 6 8 9 8 7 7 4 3 3 5 6 9 9 9 7 5 5 5 6 6 5 7 8 11 15 15 13 14 15 15 10 15 15 11 10 11 6 5 4
13 18 20 20 9 3 3 3 4 4 4 3 4 6 6 6 6 3 5 6 5 3 6 5 7 9 9 8 6 6 5 4 5 7 7 7 11 13 12 14 12 19 18 18 15 15 14 13 13 8 8 9 8 5
15 15 16 11 5 5 3 3 4 4 4 4 4 4 4 6 7 7 6 5 4 3 6 8 8 8 6 3 7 7 4 4 6 6 9 8 9 15 15 16 17 18 11 8 10 9 13 8 14 13 11 10 10 10
5 20 6 6 3 3 4 7 4 2 3 5 6 6 5 5 7 5 4 5 4 8 8 7 7 7 4 2 3 6 8 8 11 12 14 13 9 9 9 14 14 10 9 11 16 10 14 17 15 15 13 14 13 12
14 7 3 4 3 3 4 2 4 4 4 3 3 3 4 4 4 3 4 5 6 6 3 3 1 1 2 1 3 6 7 9 7 9 13 14 16 17 16 18 18 11 10 16 20 19 17 19 16 15 14 13 13 11
5 4 3 4 7 3 2 3 4 4 4 5 4 5 6 5 5 5 9 10 9 6 3 0 3 4 4 5 4 5 10 12 13 16 16 14 9 12 18 19 19 19 18 20 20 19 16 18 19 17 17 12 13 13
4 6 4 6 5 5 5 4 5 4 5 10 6 5 5 4 5 11 15 11 7 3 5 2 1 2 4 6 7 11 14 14 7 9 17 17 17 17 16 19 20 21 19 17 15 17 20 21 20 20 20 18 14 14
7 7 8 5 5 5 5 3 5 6 8 7 5 5 2 4 5 6 7 6 5 4 1 2 3 6 9 11 12 10 15 10 13 9 17 16 16 14 11 11 11 15 18 15 18 21 23 23 22 23 21 22 20 17
5 6 5 3 3 3 4 5 8 7 7 5 4 2 3 5 6 2 4 4 5 11 16 18 17 13 11 14 16 11 11 11 11 14 19 19 18 17 18 14 13 21 21 22 22 23 23 23 22 22 22 22 22 21
6 2 6 4 4 4 6 4 3 3 4 1 2 4 4 4 9 6 8 19 19 20 22 23 22 12 11 12 10 8 8 10 13 15 16 16 14 15 14 16 20 24 25 24 23 23 23 24 25 25 24 23 24 23
5 4 3 7 5 3 3 4 5 5 2 2 4 6 6 9 10 11 15 16 17 19 17 11 9 9 5 7 5 8 8 8 10 12 13 11 10 16 19 24 25 24 23 24 24 25 25 25 26 29 30 28 28 27
5 4 4 4 4 5 5 3 4 5 6 9 9 12 12 10 9 5 8 9 9 7 6 6 7 8 7 8 8 10 9 8 7 11 10 12 16 27 27 26 26 26 27 26 26 27 27 26 25 25 23 24 23 22
1 3 4 5 6 7 4 3 8 9 9 10 10 10 11 8 4 6 7 5 4 4 5 6 6 8 9 9 10 8 9 11 14 17 18 23 25 26 26 26 28 27 27 27 27 27 27 27 26 26 25 26 26 25
3 4 4 6 7 6 7 5 6 8 10 10 10 8 6 4 3 3 1 1 1 2 4 5 7 8 10 11 12 15 16 20 21 21 24 26 27 28 29 28 28 28 27 28 28 29 28 27 25 26 25 28 28 26
3 5 6 5 3 3 3 6 6 8 6 9 8 2 2 3 2 2 2 3 3 2 4 7 9 12 14 15 18 22 23 21 23 26 26 27 30 30 29 28 29 29 29 28 28 28 29 29 27 27 28 29 27 26
Wind_Direction
144 145 145 147 154 159 164 161 162 163 164 162 157 165 178 187 182 189 155 200 245 268 284 246 255 265 257 245 269 122 275 220 258 257 259 270 266 271 280 273 273 273 268 265 269 266 270 276 271 260 283 304 298 304
147 152 154 158 158 154 156 153 155 155 156 156 163 168 172 186 199 199 195 199 219 229 283 308 281 273 269 281 295 280 264 279 264 261 267 300 289 292 286 278 286 280 280 281 273 276 286 299 295 291 292 293 292 288
150 153 153 152 150 149 147 148 151 154 160 166 171 177 188 200 214 214 229 169 168 268 279 259 262 264 247 249 250 257 257 258 262 270 284 279 274 282 277 278 283 283 285 276 281 277 280 277 280 290 290 289 292 293
144 144 146 147 149 151 152 153 154 154 158 166 175 184 194 204 212 216 225 220 217 260 271 285 227 246 259 244 232 236 251 259 273 271 278 271 272 275 278 286 285 282 286 282 280 281 288 291 282 279 284 286 287 285
150 148 147 148 148 149 151 154 158 164 170 174 178 181 193 200 211 222 237 226 207 217 305 296 298 282 252 240 246 239 237 249 257 258 239 255 263 270 269 277 268 270 269 268 272 277 273 272 275 273 275 274 267 265
145 145 147 148 152 157 162 165 165 163 162 169 181 196 210 208 201 203 253 210 211 205 291 296 326 282 259 244 239 237 240 244 238 242 254 254 265 271 268 267 274 279 278 270 271 278 287 294 297 287 278 279 276 276
146 148 152 155 155 153 153 157 158 163 170 178 201 223 219 204 185 232 350 76 157 171 262 287 272 169 245 231 235 237 244 242 236 254 241 258 270 246 262 268 274 286 296 292 287 286 285 292 297 306 303 289 277 263
150 155 159 159 157 157 157 163 164 162 162 170 151 139 146 158 197 223 150 121 155 223 235 266 269 270 179 259 252 202 191 249 217 240 256 260 266 261 258 261 273 275 303 325 310 302 287 289 285 276 277 285 279 276
154 154 157 161 161 162 160 162 164 159 144 137 128 126 123 201 228 82 149 173 220 261 275 212 276 306 148 262 282 202 229 235 223 229 238 252 243 236 258 284 308 304 293 313 308 296 289 280 279 289 292 281 268 268
158 161 160 161 162 162 166 167 164 152 143 132 136 155 244 82 113 100 134 208 215 231 235 259 252 251 263 245 260 265 209 236 253 235 258 241 255 269 284 302 305 303 296 292 307 306 313 305 296 292 285 279 283 273
166 166 166 165 168 170 173 166 158 141 134 167 191 204 79 131 163 184 253 232 207 239 211 237 236 247 258 240 267 231 253 244 249 207 217 243 253 323 296 311 332 328 315 312 303 307 313 299 293 290 277 266 266 272
181 177 175 171 169 167 168 169 173 161 174 174 82 106 148 196 217 236 239 240 233 260 221 259 252 244 247 205 245 210 250 237 252 140 233 241 68 338 352 339 332 329 331 322 326 319 306 302 302 291 273 257 250 254
190 185 180 178 176 175 179 174 171 173 160 161 212 81 228 160 235 229 199 223 239 251 266 291 296 262 248 196 235 252 234 238 224 225 247 46 355 351 344 337 332 333 333 331 324 326 322 326 324 322 324 250 245 220
180 176 176 179 182 178 174 184 173 167 232 215 174 222 221 184 238 211 262 313 310 292 298 302 299 260 227 195 233 245 232 253 248 249 36 359 347 343 343 338 336 336 338 330 330 332 336 336 330 341 4 11 148 136
172 174 179 187 183 184 175 168 161 190 248 220 226 242 223 244 275 271 286 286 286 289 292 296 283 225 234 234 214 260 237 231 23 26 340 331 337 344 339 343 340 336 334 330 333 332 332 335 334 339 360 10 65 118
166 162 182 186 170 169 170 167 177 226 266 251 239 246 252 263 259 257 263 280 289 305 304 261 256 269 253 250 245 237 276 53 21 342 331 326 336 335 337 337 334 331 328 327 330 332 331 337 334 329 341 360 41 138
164 176 181 170 169 176 160 175 201 228 222 239 242 239 257 276 278 278 274 283 311 295 279 299 268 251 293 259 257 301 1 340 333 324 322 328 331 329 331 329 330 327 325 329 332 336 331 337 331 334 350 4 50 98
207 159 162 161 150 145 157 187 247 237 240 240 248 251 248 252 272 273 264 270 253 246 274 266 298 265 258 265 282 29 315 322 308 309 310 324 322 321 325 322 323 321 323 330 329 327 331 340 340 343 335 337 62 116
174 161 166 170 159 162 164 216 235 255 241 255 259 262 260 263 254 262 269 268 255 271 284 250 253 251 263 281 307 309 305 301 304 306 302 287 298 309 308 318 310 317 327 324 327 327 323 325 316 316 312 300 280 195
170 170 174 166 171 214 233 224 218 261 267 261 251 258 248 255 277 294 269 261 229 204 215 230 248 267 295 309 310 292 295 285 290 297 305 316 321 324 320 318 324 323 321 325 330 326 323 322 328 313 306 299 299 270
144 164 168 168 216 243 262 235 229 254 273 257 259 264 265 262 265 269 258 200 202 233 249 259 284 294 291 278 278 275 268 275 292 303 306 309 314 311 312 319 323 316 321 326 322 320 318 323 322 315 311 288 265 259
144 175 172 199 253 249 250 237 253 342 255 254 270 235 257 253 252 241 210 209 232 244 252 272 293 317 294 277 325 303 334 321 303 295 289 289 300 307 313 314 312 317 317 318 319 321 317 316 324 316 300 290 280 252
148 177 229 211 221 249 257 233 236 227 240 247 251 243 234 229 230 224 229 221 245 250 276 295 16 256 298 307 288 282 275 277 283 290 303 302 300 302 308 303 310 314 312 314 318 313 310 314 316 318 302 291 276 257
156 195 217 221 212 251 211 236 224 248 233 235 236 243 253 250 251 241 257 267 273 263 177 154 288 285 260 251 285 318 308 295 285 291 296 303 302 304 304 303 302 300 304 307 307 307 321 330 325 324 312 284 276 264
215 206 214 212 211 221 218 224 212 244 251 255 261 256 261 259 253 265 279 286 307 349 114 175 296 338 319 310 312 316 307 293 289 302 300 299 300 299 304 306 304 305 309 304 317 327 320 316 313 312 308 304 273 270
226 190 203 217 189 214 219 243 213 238 263 274 252 269 302 273 263 266 295 41 33 19 229 25 341 312 309 313 309 307 307 316 310 297 294 305 314 307 301 301 302 306 317 332 324 317 311 310 308 306 304 302 305 266
243 225 197 230 284 284 276 260 273 271 261 262 278 282 251 258 265 317 97 54 350 330 317 309 309 303 306 314 316 329 335 321 307 303 303 303 300 296 294 302 306 310 314 313 307 301 299 301 301 301 300 298 297 301
241 251 230 194 228 240 268 272 255 251 254 281 267 240 252 279 300 349 334 334 337 328 318 311 308 296 307 310 314 316 327 327 321 319 317 310 312 313 308 309 312 312 308 304 300 296 292 292 294 296 295 294 293 291
228 209 224 243 235 230 238 244 254 278 79 301 286 294 288 293 314 317 333 329 323 316 313 330 25 10 14 353 357 348 344 342 343 338 335 328 324 322 323 317 313 311 307 304 302 298 293 292 292 292 288 283 281 280
229 200 239 232 221 244 260 302 306 333 309 293 287 288 288 296 326 23 352 357 4 3 13 36 35 28 20 6 353 348 344 335 340 339 326 321 316 313 313 311 310 310 308 304 302 301 301 299 298 297 294 295 290 284
172 206 242 251 269 282 332 343 303 293 288 288 298 288 293 313 105 53 45 39 59 69 64 45 36 28 8 357 345 328 320 324 318 316 312 312 312 312 311 309 308 306 303 300 298 295 294 297 296 294 292 291 290 291
204 226 258 270 280 311 326 294 304 290 290 288 291 301 297 265 225 110 85 248 171 102 47 18 4 351 341 326 316 318 307 307 309 310 314 313 311 311 310 308 306 304 300 298 297 296 295 294 291 289 289 287 285 286
266 257 260 279 253 245 300 326 298 292 289 290 285 307 286 301 332 86 182 211 236 249 285 301 313 318 322 319 315 312 306 305 311 311 310 308 307 308 308 309 308 305 302 299 297 296 295 293 292 291 288 284 283 284